This demonstration page uses our WeatherBlox Daily Observations layout. Learn more.

Left ArrowRight Arrow

30.21309, -93.2044

Hourly Observations for July 21, 2021

Temp ( °F °C ) Dew Point ( °F °C ) Humidity (%) Winds ( mph kmh ) Pressure ( in mb ) Visibility ( mi km ) Precip ( " mm )
12:15 am 00:15 Partly Cloudy 76 24.6 73 22.8 90 90 Calm 29.94 1014 10 16 0.00 0.00
12:35 am 00:35 Partly Cloudy 76 24.6 73 22.9 90 90 Calm 29.94 1014 10 16 0.00 0.00
12:55 am 00:55 Clear 76 24.3 73 22.9 92 92 Calm 29.94 1014 10 16 0.00 0.00
1:15 am 01:15 Clear 76 24.2 73 22.9 92 92 Calm 29.93 1014 10 16 0.00 0.00
1:35 am 01:35 Clear 75 24 73 22.7 92 92 N 3 6 29.93 1014 10 16 0.00 0.00
1:55 am 01:55 Clear 75 24 73 22.7 92 92 N 5 7 29.93 1014 10 16 0.00 0.00
2:15 am 02:15 Clear 75 24 73 22.8 93 93 N 3 6 29.93 1014 10 16 0.00 0.00
2:35 am 02:35 Clear 75 23.9 73 22.7 93 93 N 3 6 29.93 1014 10 16 0.00 0.00
2:55 am 02:55 Clear 75 24 73 22.6 92 92 Calm 29.93 1014 10 16 0.00 0.00
3:15 am 03:15 Partly Cloudy 75 24 73 22.5 91 91 Calm 29.93 1014 10 16 0.00 0.00
3:35 am 03:35 Cloudy 75 23.9 73 22.5 92 92 Calm 29.93 1014 10 16 0.00 0.00
3:55 am 03:55 Cloudy 75 23.9 73 22.5 92 92 Calm 29.93 1014 10 16 0.00 0.00
4:15 am 04:15 Partly Cloudy 74 23.6 72 22.3 92 92 NNW 3 6 29.93 1014 10 16 0.00 0.00
4:35 am 04:35 Clear 74 23.6 72 22.3 92 92 NNW 6 9 29.93 1014 10 16 0.00 0.00
4:55 am 04:55 Clear 74 23.5 72 22.4 94 94 NNW 3 6 29.93 1014 10 16 0.00 0.00
5:15 am 05:15 Clear 74 23.4 72 22.3 94 94 NNW 5 7 29.94 1014 10 16 0.00 0.00
5:35 am 05:35 Clear 74 23.3 72 22.3 94 94 NNW 5 7 29.94 1014 10 16 0.00 0.00
6:00 am 06:00 Mostly Clear 73 23 72 22 94 94 N 5 7 29.95 1014 10 16 0.00 0.00
6:47 am 06:47 Mostly Sunny 73 23 72 22 94 94 N 5 7 29.97 1015 10 16 0.00 0.00
7:45 am 07:45 Mostly Sunny 75 24 73 23 94 94 Calm 29.99 1016 10 16 0.00 0.00
8:50 am 08:50 Mostly Sunny 79 26 73 23 84 84 Calm 30.01 1016 10 16 0.00 0.00
9:50 am 09:50 Mostly Cloudy 81 27 73 23 79 79 Calm 30.02 1017 10 16 0.00 0.00
10:55 am 10:55 Mostly Cloudy 82 28 73 23 74 74 Calm 30.03 1017 10 16 0.00 0.00
11:50 am 11:50 Mostly Cloudy 84 29 73 23 70 70 Calm 30.03 1017 10 16 0.00 0.00
12:45 pm 12:45 Mostly Cloudy 86 30 70 21 59 59 SW 8 13 30.02 1017 10 16 0.00 0.00
1:45 pm 13:45 Mostly Cloudy 90 32 73 23 59 59 SE 7 11 30.00 1016 10 16 0.00 0.00
2:48 pm 14:48 Mostly Cloudy 90 32 72 22 55 55 E 7 11 29.99 1016 10 16 0.00 0.00
3:54 pm 15:54 Mostly Cloudy 90 32 73 23 59 59 Calm 29.98 1015 10 16 0.00 0.00
4:51 pm 16:51 Mostly Cloudy 90 32 73 23 59 59 S 8 13 29.98 1015 10 16 0.00 0.00
5:51 pm 17:51 Mostly Cloudy 90 32 73 23 59 59 S 6 9 29.97 1015 10 16 0.00 0.00
6:45 pm 18:45 Mostly Cloudy 90 32 73 23 59 59 S 12 19 29.98 1015 10 16 0.00 0.00
8:55 pm 20:55 Mostly Clear 82 28 73 23 74 74 SW 8 13 30.04 1017 10 16 0.00 0.00
9:45 pm 21:45 Mostly Cloudy 82 28 73 23 74 74 WSW 6 9 30.05 1018 10 16 0.00 0.00
10:15 pm 22:15 Mostly Cloudy 79 26 73 23 84 84 N 7 11 30.07 1018 10 16 0.00 0.00
10:35 pm 22:35 Partly Cloudy 78 25.3 73 22.9 87 87 N 7 11 30.07 1018 10 16 0.00 0.00
10:55 pm 22:55 Clear 77 25.1 73 22.9 88 88 Calm 30.08 1019 10 16 0.00 0.00
11:15 pm 23:15 Clear 77 24.8 73 22.8 89 89 Calm 30.07 1018 7 11 0.00 0.00
11:35 pm 23:35 Clear 77 25 73 23 89 89 Calm 30.07 1018 10 16 0.00 0.00
11:55 pm 23:55 Clear 76 24.4 73 23 92 92 Calm 30.07 1018 10 16 0.00 0.00

Powered by AerisWeather